Regional Weather Roundup
Issued by NWS Cleveland, OH

Home | Current Version | Previous Version | Graphics & Text | Print | Product List | Glossary On
Versions: 1 2 3 4 5 6 7 8 9 10 11 12 13 14 15 16 17 18 19 20 21 22 23 24 25 26 27 28 29 30 31 32 33 34 35 36 37 38 39 40 41 42 43 44 45 46 47 48 49 50
000
ASUS41 KCLE 021500
RWRCLE
OHIO REGIONAL WEATHER ROUNDUP
NATIONAL WEATHER SERVICE WILMINGTON, OH
1100 AM EDT TUE SEP 02 2014

NOTE: "FAIR" INDICATES FEW OR NO CLOUDS BELOW 12,000 FEET WITH NO
SIGNIFICANT WEATHER AND/OR OBSTRUCTIONS TO VISIBILITY.

OHZ001>008-015>018-024>027-034-035-043-044-021600-
   NORTHWEST OHIO

CITY           SKY/WX    TMP DP  RH WIND       PRES   REMARKS
DEFIANCE       CLOUDY    71  65  81 SW8       29.92R
FINDLAY        CLOUDY    72  65  78 SW8       29.93R
TOLEDO EXPRESS CLOUDY    70  67  90 SW5       29.90R
TOLEDO METCALF CLOUDY    73  66  78 SW13      29.91R
LIMA           CLOUDY    72  65  78 SW10      29.95R
$$

OHZ009>014-019>023-028>033-038-089-021600-
   NORTHEAST OHIO

CITY           SKY/WX    TMP DP  RH WIND       PRES   REMARKS
CLE-HOPKINS    CLOUDY    75  68  78 SW7       29.91F
CLE-LAKEFRONT  CLOUDY    76  67  73 SW5       29.87F
CUY CO. ARPT   CLOUDY    75  72  88 W9        29.90F
LORAIN-ELYRIA  CLOUDY    77  67  71 W7        29.91F
ASHTABULA      PTSUNNY   76  68  76 W8        29.91F
AKRON-CANTON   LGT RAIN  75  67  76 S8        29.93F
WOOSTER        NOT AVBL
MANSFIELD      PTSUNNY   75  65  70 SW7       29.93R
YOUNGSTOWN     CLOUDY    76  68  76 SW9       29.94F
$$

OHZ042-051>053-060>062-070>072-077>081-021600-
  SOUTHWEST OHIO

CITY           SKY/WX    TMP DP  RH WIND       PRES   REMARKS
CINC-COVINGTON CLOUDY    70  67  90 S14       29.96F
CINC-LUNKEN    CLOUDY    70  68  93 S13       29.96F
HAMILTON       CLOUDY    71  68  90 VRB5      29.98R
DAYTON         NOT AVBL
WRIGHT-PAT AFB PTSUNNY   70  66  88 SW7       29.97R
DAYTON GENERAL PTSUNNY   70  67  90 S12       29.97R
WILMINGTON     LGT RAIN  69  66  90 S10       29.96R
$$

OHZ036-037-039>041-045>050-054>059-063>069-073>076-082>088-021600-
  CENTRAL AND SOUTHEAST OHIO

CITY           SKY/WX    TMP DP  RH WIND       PRES   REMARKS
COLUMBUS       CLOUDY    74  69  85 S6G17     29.92F
OSU AIRPORT    PTSUNNY   73  67  81 SW10      29.95R
BOLTON FIELD   NOT AVBL
RICKENBACK AFB NOT AVBL
NEWARK         CLOUDY    73  69  87 SE9G17    29.89F
MARION         CLOUDY    72  65  78 W7        29.95R
LANCASTER      LGT RAIN  71  68  90 S13       29.92F
ZANESVILLE     CLOUDY    74  70  87 S7        29.97F
NEW PHILLY     PTSUNNY   75  71  87 SE5       29.95F
$$


USA.gov is the U.S. government's official web portal to all federal, state and local government web resources and services.